QPF
0.00 0.00 0.00 0.00 0.00 0.00 0.00 0.00 0.00 0.00 0.00 0.00 0.00 0.00 0.00 0.00 0.00 0.00 0.00 0.00 0.00 0.00 0.00 0.00 0.00 0.00 0.00 0.00 0.00 0.00 0.00 0.00 0.00 0.00 0.00 0.00 0.00 0.00 0.00 0.00 0.00 0.00 0.00 0.00 0.00 0.00 0.00 0.00 0.00 0.00 0.00 0.00 0.00 0.00 0.00 0.00 0.00 0.00 0.00 0.00 0.00 0.00 0.00 0.00 0.00 0.00 0.00 0.00 0.00
0.00 0.00 0.00 0.00 0.00 0.00 0.00 0.00 0.00 0.00 0.00 0.00 0.00 0.00 0.00 0.00 0.00 0.00 0.00 0.00 0.00 0.00 0.00 0.00 0.00 0.00 0.00 0.00 0.00 0.00 0.00 0.00 0.00 0.00 0.00 0.00 0.00 0.00 0.00 0.00 0.00 0.00 0.00 0.00 0.00 0.00 0.00 0.00 0.01 0.01 0.01 0.01 0.02 0.02 0.02 0.01 0.01 0.01 0.00 0.00 0.02 0.02 0.01 0.00 0.00 0.00 0.00 0.00 0.00
0.00 0.00 0.00 0.00 0.00 0.00 0.00 0.00 0.00 0.00 0.00 0.00 0.00 0.00 0.00 0.00 0.00 0.00 0.00 0.00 0.00 0.00 0.00 0.00 0.00 0.00 0.00 0.00 0.00 0.00 0.00 0.00 0.00 0.00 0.00 0.00 0.00 0.00 0.00 0.00 0.00 0.00 0.00 0.00 0.00 0.00 0.00 0.00 0.01 0.02 0.02 0.02 0.03 0.03 0.02 0.02 0.02 0.03 0.04 0.04 0.03 0.02 0.01 0.00 0.00 0.00 0.00 0.00 0.02
0.00 0.00 0.00 0.00 0.00 0.00 0.00 0.00 0.00 0.00 0.00 0.00 0.00 0.00 0.00 0.00 0.00 0.00 0.00 0.00 0.00 0.00 0.00 0.00 0.00 0.00 0.00 0.00 0.00 0.00 0.00 0.00 0.00 0.00 0.00 0.00 0.00 0.00 0.00 0.00 0.00 0.00 0.00 0.00 0.00 0.00 0.00 0.00 0.00 0.01 0.01 0.02 0.02 0.02 0.02 0.01 0.01 0.01 0.01 0.02 0.02 0.02 0.02 0.00 0.00 0.00 0.00 0.01 0.03
0.00 0.00 0.00 0.00 0.00 0.00 0.00 0.00 0.00 0.00 0.00 0.00 0.00 0.00 0.00 0.00 0.00 0.00 0.00 0.00 0.00 0.00 0.00 0.00 0.00 0.00 0.00 0.00 0.00 0.00 0.00 0.00 0.00 0.00 0.00 0.00 0.00 0.00 0.00 0.00 0.00 0.00 0.00 0.00 0.00 0.00 0.00 0.01 0.01 0.01 0.01 0.01 0.01 0.01 0.00 0.00 0.03 0.03 0.02 0.03 0.03 0.04 0.04 0.03 0.03 0.03 0.03 0.03 0.04
0.00 0.00 0.00 0.00 0.00 0.00 0.00 0.00 0.00 0.00 0.00 0.00 0.00 0.00 0.00 0.00 0.00 0.00 0.00 0.00 0.00 0.00 0.00 0.00 0.00 0.00 0.00 0.00 0.00 0.00 0.00 0.00 0.00 0.00 0.00 0.00 0.00 0.00 0.00 0.00 0.00 0.00 0.00 0.00 0.00 0.00 0.01 0.02 0.03 0.02 0.02 0.01 0.01 0.01 0.00 0.01 0.02 0.03 0.04 0.03 0.03 0.03 0.03 0.03 0.03 0.04 0.04 0.04 0.04
0.00 0.00 0.00 0.00 0.00 0.00 0.00 0.00 0.00 0.00 0.00 0.00 0.00 0.00 0.00 0.00 0.00 0.00 0.00 0.00 0.00 0.00 0.00 0.00 0.00 0.00 0.00 0.00 0.00 0.00 0.00 0.00 0.00 0.00 0.00 0.00 0.00 0.00 0.00 0.00 0.00 0.00 0.00 0.00 0.00 0.00 0.01 0.01 0.01 0.01 0.02 0.02 0.02 0.02 0.02 0.02 0.02 0.02 0.02 0.02 0.02 0.02 0.02 0.02 0.02 0.02 0.03 0.03 0.03
0.00 0.00 0.00 0.00 0.00 0.00 0.00 0.00 0.00 0.00 0.00 0.00 0.00 0.00 0.00 0.00 0.00 0.00 0.00 0.00 0.00 0.00 0.00 0.00 0.00 0.00 0.00 0.00 0.00 0.00 0.00 0.00 0.00 0.00 0.00 0.00 0.00 0.00 0.00 0.00 0.00 0.00 0.00 0.00 0.00 0.00 0.00 0.01 0.01 0.01 0.01 0.02 0.02 0.02 0.02 0.02 0.02 0.02 0.02 0.02 0.02 0.02 0.01 0.01 0.01 0.01 0.02 0.02 0.03
0.00 0.00 0.00 0.00 0.00 0.00 0.00 0.00 0.00 0.00 0.00 0.00 0.00 0.00 0.00 0.00 0.00 0.00 0.00 0.00 0.00 0.00 0.00 0.00 0.00 0.00 0.00 0.00 0.00 0.00 0.00 0.00 0.00 0.00 0.00 0.00 0.00 0.00 0.00 0.00 0.00 0.00 0.00 0.00 0.00 0.00 0.00 0.00 0.00 0.01 0.01 0.01 0.02 0.02 0.02 0.02 0.02 0.01 0.01 0.01 0.02 0.02 0.02 0.02 0.02 0.02 0.02 0.02 0.02
0.00 0.00 0.00 0.00 0.00 0.00 0.00 0.00 0.00 0.00 0.00 0.00 0.00 0.00 0.00 0.00 0.00 0.00 0.00 0.00 0.00 0.00 0.00 0.00 0.00 0.00 0.00 0.00 0.00 0.00 0.00 0.00 0.00 0.00 0.00 0.00 0.00 0.00 0.01 0.01 0.00 0.00 0.00 0.00 0.00 0.00 0.00 0.00 0.00 0.00 0.01 0.01 0.01 0.01 0.01 0.01 0.01 0.01 0.01 0.01 0.01 0.01 0.01 0.01 0.02 0.02 0.02 0.02 0.02
0.00 0.00 0.00 0.00 0.00 0.00 0.00 0.00 0.00 0.00 0.00 0.00 0.00 0.00 0.00 0.00 0.00 0.00 0.00 0.00 0.00 0.00 0.00 0.00 0.00 0.00 0.00 0.00 0.00 0.00 0.00 0.00 0.00 0.00 0.00 0.00 0.00 0.00 0.01 0.02 0.01 0.01 0.01 0.00 0.00 0.00 0.00 0.00 0.01 0.01 0.01 0.01 0.01 0.00 0.00 0.00 0.01 0.01 0.01 0.01 0.01 0.01 0.01 0.01 0.01 0.01 0.01 0.02 0.02
0.00 0.00 0.00 0.00 0.00 0.00 0.00 0.00 0.00 0.00 0.00 0.00 0.00 0.00 0.00 0.00 0.00 0.00 0.00 0.00 0.00 0.00 0.00 0.00 0.00 0.00 0.00 0.00 0.00 0.00 0.00 0.00 0.00 0.00 0.00 0.00 0.00 0.00 0.00 0.01 0.01 0.01 0.01 0.00 0.00 0.00 0.00 0.00 0.00 0.00 0.00 0.01 0.01 0.00 0.00 0.00 0.00 0.00 0.01 0.01 0.01 0.01 0.01 0.01 0.01 0.01 0.01 0.01 0.01
0.00 0.00 0.00 0.00 0.00 0.00 0.00 0.00 0.00 0.00 0.00 0.00 0.00 0.00 0.00 0.00 0.00 0.00 0.00 0.00 0.00 0.00 0.00 0.00 0.00 0.00 0.00 0.00 0.00 0.00 0.00 0.00 0.00 0.00 0.00 0.00 0.00 0.00 0.00 0.00 0.00 0.00 0.00 0.00 0.00 0.00 0.00 0.00 0.00 0.00 0.00 0.00 0.00 0.00 0.00 0.00 0.00 0.00 0.00 0.01 0.01 0.01 0.01 0.01 0.00 0.01 0.01 0.01 0.01
0.00 0.00 0.00 0.00 0.00 0.00 0.00 0.00 0.00 0.00 0.00 0.00 0.00 0.00 0.00 0.00 0.00 0.00 0.00 0.00 0.00 0.00 0.00 0.00 0.00 0.00 0.00 0.00 0.00 0.00 0.00 0.00 0.01 0.01 0.00 0.00 0.00 0.00 0.00 0.00 0.00 0.00 0.00 0.00 0.00 0.00 0.00 0.00 0.00 0.00 0.00 0.00 0.00 0.00 0.00 0.00 0.00 0.00 0.00 0.01 0.01 0.00 0.00 0.00 0.00 0.00 0.00 0.00 0.00
0.00 0.00 0.00 0.00 0.00 0.00 0.00 0.00 0.00 0.00 0.00 0.00 0.00 0.00 0.00 0.00 0.00 0.00 0.00 0.00 0.00 0.00 0.00 0.00 0.00 0.00 0.00 0.00 0.00 0.00 0.00 0.00 0.00 0.01 0.01 0.00 0.00 0.00 0.00 0.00 0.00 0.00 0.00 0.00 0.00 0.00 0.00 0.00 0.00 0.00 0.00 0.00 0.00 0.00 0.00 0.00 0.00 0.00 0.00 0.01 0.00 0.00 0.00 0.00 0.00 0.00 0.00 0.00 0.00
0.00 0.00 0.00 0.00 0.00 0.00 0.00 0.00 0.00 0.00 0.00 0.00 0.00 0.00 0.00 0.00 0.00 0.00 0.00 0.00 0.00 0.00 0.00 0.00 0.00 0.00 0.00 0.00 0.00 0.00 0.00 0.00 0.00 0.00 0.00 0.00 0.00 0.00 0.00 0.00 0.00 0.00 0.00 0.00 0.00 0.00 0.00 0.00 0.00 0.00 0.00 0.00 0.00 0.00 0.00 0.00 0.00 0.00 0.00 0.00 0.00 0.00 0.00 0.00 0.00 0.00 0.00 0.00 0.00
0.00 0.00 0.00 0.00 0.00 0.00 0.00 0.00 0.00 0.00 0.00 0.00 0.00 0.00 0.00 0.00 0.00 0.00 0.00 0.00 0.00 0.00 0.00 0.00 0.00 0.00 0.00 0.00 0.00 0.00 0.00 0.00 0.00 0.00 0.00 0.00 0.00 0.00 0.00 0.00 0.00 0.00 0.00 0.00 0.00 0.00 0.00 0.00 0.00 0.00 0.00 0.00 0.00 0.00 0.00 0.00 0.00 0.00 0.00 0.00 0.00 0.00 0.00 0.00 0.00 0.00 0.00 0.00 0.00
0.00 0.00 0.00 0.00 0.00 0.00 0.00 0.00 0.00 0.00 0.00 0.00 0.00 0.00 0.00 0.00 0.00 0.00 0.00 0.00 0.00 0.00 0.00 0.00 0.00 0.00 0.00 0.00 0.00 0.00 0.00 0.00 0.00 0.00 0.00 0.00 0.00 0.00 0.00 0.00 0.00 0.00 0.00 0.00 0.00 0.00 0.00 0.00 0.00 0.00 0.00 0.00 0.00 0.00 0.00 0.00 0.00 0.00 0.00 0.00 0.00 0.00 0.00 0.00 0.00 0.00 0.00 0.00 0.00
0.00 0.00 0.00 0.00 0.00 0.00 0.00 0.00 0.00 0.00 0.00 0.00 0.00 0.00 0.00 0.00 0.00 0.00 0.00 0.00 0.00 0.00 0.00 0.00 0.00 0.00 0.00 0.00 0.00 0.00 0.00 0.00 0.00 0.00 0.00 0.00 0.00 0.00 0.00 0.00 0.00 0.00 0.00 0.00 0.00 0.00 0.00 0.00 0.00 0.00 0.00 0.00 0.00 0.00 0.00 0.00 0.00 0.00 0.00 0.00 0.00 0.00 0.00 0.00 0.00 0.00 0.00 0.00 0.00
0.00 0.00 0.00 0.00 0.00 0.00 0.00 0.00 0.00 0.00 0.00 0.00 0.00 0.00 0.00 0.00 0.00 0.00 0.00 0.00 0.00 0.00 0.00 0.00 0.00 0.00 0.00 0.00 0.00 0.00 0.00 0.00 0.00 0.00 0.00 0.00 0.00 0.00 0.00 0.00 0.00 0.00 0.00 0.00 0.00 0.00 0.00 0.00 0.00 0.00 0.00 0.00 0.00 0.00 0.00 0.00 0.00 0.00 0.00 0.00 0.00 0.00 0.00 0.00 0.00 0.00 0.00 0.00 0.00
0.00 0.00 0.00 0.00 0.00 0.00 0.00 0.00 0.00 0.00 0.00 0.00 0.00 0.00 0.00 0.00 0.00 0.00 0.00 0.00 0.00 0.00 0.00 0.00 0.00 0.00 0.00 0.00 0.00 0.00 0.00 0.00 0.00 0.00 0.00 0.00 0.00 0.00 0.00 0.00 0.00 0.00 0.00 0.00 0.00 0.00 0.00 0.00 0.00 0.00 0.00 0.00 0.00 0.00 0.00 0.00 0.00 0.00 0.00 0.00 0.00 0.00 0.00 0.00 0.00 0.00 0.00 0.00 0.00
0.00 0.00 0.00 0.00 0.00 0.00 0.00 0.00 0.00 0.00 0.00 0.00 0.00 0.00 0.00 0.00 0.00 0.00 0.00 0.00 0.00 0.00 0.00 0.00 0.00 0.00 0.00 0.00 0.00 0.00 0.00 0.00 0.00 0.00 0.00 0.00 0.00 0.00 0.00 0.00 0.00 0.00 0.00 0.00 0.00 0.00 0.00 0.00 0.00 0.00 0.00 0.00 0.00 0.00 0.00 0.00 0.00 0.00 0.00 0.00 0.00 0.00 0.00 0.00 0.00 0.00 0.00 0.00 0.00
0.00 0.00 0.00 0.00 0.00 0.00 0.00 0.00 0.00 0.00 0.00 0.00 0.00 0.00 0.00 0.00 0.00 0.00 0.00 0.00 0.00 0.00 0.00 0.00 0.00 0.00 0.00 0.00 0.00 0.00 0.00 0.00 0.00 0.00 0.00 0.00 0.00 0.00 0.00 0.00 0.00 0.00 0.00 0.00 0.00 0.00 0.00 0.00 0.00 0.00 0.00 0.00 0.00 0.00 0.00 0.00 0.00 0.00 0.00 0.00 0.00 0.00 0.00 0.00 0.00 0.00 0.00 0.00 0.00
0.00 0.00 0.00 0.00 0.00 0.00 0.00 0.00 0.00 0.00 0.00 0.00 0.00 0.00 0.00 0.00 0.00 0.00 0.00 0.00 0.00 0.00 0.00 0.00 0.00 0.00 0.00 0.00 0.00 0.00 0.00 0.00 0.00 0.00 0.00 0.00 0.00 0.00 0.00 0.00 0.00 0.00 0.00 0.00 0.00 0.00 0.00 0.00 0.00 0.00 0.00 0.00 0.00 0.00 0.00 0.00 0.00 0.00 0.00 0.00 0.00 0.00 0.00 0.00 0.00 0.00 0.00 0.00 0.00
0.00 0.00 0.00 0.00 0.00 0.00 0.00 0.00 0.00 0.00 0.00 0.00 0.00 0.00 0.00 0.00 0.00 0.00 0.00 0.00 0.00 0.00 0.00 0.00 0.00 0.00 0.00 0.00 0.00 0.00 0.00 0.00 0.00 0.00 0.00 0.00 0.00 0.00 0.00 0.00 0.00 0.00 0.00 0.00 0.00 0.00 0.00 0.00 0.00 0.00 0.00 0.00 0.00 0.00 0.00 0.00 0.00 0.00 0.00 0.00 0.00 0.00 0.00 0.00 0.00 0.00 0.00 0.00 0.00
0.00 0.00 0.00 0.00 0.00 0.00 0.00 0.00 0.00 0.00 0.00 0.00 0.00 0.00 0.00 0.00 0.00 0.00 0.00 0.00 0.00 0.00 0.00 0.00 0.00 0.00 0.00 0.00 0.00 0.00 0.00 0.00 0.00 0.00 0.00 0.00 0.00 0.00 0.00 0.00 0.00 0.00 0.00 0.00 0.00 0.00 0.00 0.00 0.00 0.00 0.00 0.00 0.00 0.00 0.00 0.00 0.00 0.00 0.00 0.00 0.00 0.00 0.00 0.00 0.00 0.00 0.00 0.00 0.00
0.00 0.00 0.00 0.00 0.00 0.00 0.00 0.00 0.00 0.00 0.00 0.00 0.00 0.00 0.00 0.00 0.00 0.00 0.00 0.00 0.00 0.00 0.00 0.00 0.00 0.00 0.00 0.00 0.00 0.00 0.00 0.00 0.00 0.00 0.00 0.00 0.00 0.00 0.00 0.00 0.00 0.00 0.00 0.00 0.00 0.00 0.00 0.00 0.00 0.00 0.00 0.00 0.00 0.00 0.00 0.00 0.00 0.00 0.00 0.00 0.00 0.00 0.00 0.00 0.00 0.00 0.00 0.00 0.00
0.00 0.00 0.00 0.00 0.00 0.00 0.00 0.00 0.00 0.00 0.00 0.00 0.00 0.00 0.00 0.00 0.00 0.00 0.00 0.00 0.00 0.00 0.00 0.00 0.00 0.00 0.00 0.00 0.00 0.00 0.00 0.00 0.00 0.00 0.00 0.00 0.00 0.00 0.00 0.00 0.00 0.00 0.00 0.00 0.00 0.00 0.00 0.00 0.00 0.00 0.00 0.00 0.00 0.00 0.00 0.00 0.00 0.00 0.00 0.00 0.00 0.00 0.00 0.00 0.00 0.00 0.00 0.00 0.00
0.00 0.00 0.00 0.00 0.00 0.00 0.00 0.00 0.00 0.00 0.00 0.00 0.00 0.00 0.00 0.00 0.00 0.00 0.00 0.00 0.00 0.00 0.00 0.00 0.00 0.00 0.00 0.00 0.00 0.00 0.00 0.00 0.00 0.00 0.00 0.00 0.00 0.00 0.00 0.00 0.00 0.00 0.00 0.00 0.00 0.00 0.00 0.00 0.00 0.00 0.00 0.00 0.00 0.00 0.00 0.00 0.00 0.00 0.00 0.00 0.00 0.00 0.00 0.00 0.00 0.00 0.00 0.00 0.00
0.00 0.00 0.00 0.00 0.00 0.00 0.00 0.00 0.00 0.00 0.00 0.00 0.00 0.00 0.00 0.00 0.00 0.00 0.00 0.00 0.00 0.00 0.00 0.00 0.00 0.00 0.00 0.00 0.00 0.00 0.00 0.00 0.00 0.00 0.00 0.00 0.00 0.00 0.00 0.00 0.00 0.00 0.00 0.00 0.00 0.00 0.00 0.00 0.00 0.00 0.00 0.00 0.00 0.00 0.00 0.00 0.00 0.00 0.00 -0.00 0.00 0.00 0.00 0.00 0.00 0.00 0.00 0.00 0.00
0.00 0.00 0.00 0.00 0.00 0.00 0.00 0.00 0.00 0.00 0.00 0.00 0.00 0.00 0.00 0.00 0.00 0.00 0.00 0.00 0.00 0.00 0.00 0.00 0.00 0.00 0.00 0.00 0.00 0.00 0.00 0.00 0.00 0.00 0.00 0.00 0.00 0.00 0.00 0.00 0.00 0.00 0.00 0.00 0.00 0.00 0.00 0.00 0.00 0.00 0.00 0.00 0.00 0.00 0.00 0.00 0.00 0.00 0.00 0.00 0.00 0.00 0.00 0.00 0.00 0.00 0.00 0.00 0.00
0.00 0.00 0.00 0.00 0.00 0.00 0.00 0.00 0.00 0.00 0.00 0.00 0.00 0.00 0.00 0.00 0.00 0.00 0.00 0.00 0.00 0.00 0.00 0.00 0.00 0.00 0.00 0.00 0.00 0.00 0.00 0.00 0.00 0.00 0.00 0.00 0.00 0.00 0.00 0.00 0.00 0.00 0.00 0.00 0.00 0.00 0.00 0.00 0.00 0.00 0.00 0.00 0.00 0.00 0.00 0.00 0.00 0.00 0.00 0.00 0.00 0.00 0.00 0.00 0.00 0.00 0.00 0.00 0.00
0.00 0.00 0.00 0.00 0.00 0.00 0.00 0.00 0.00 0.00 0.00 0.00 0.00 0.00 0.00 0.00 0.00 0.00 0.00 0.00 0.00 0.00 0.00 0.00 0.00 0.00 0.00 0.00 0.00 0.00 0.00 0.00 0.00 0.00 0.00 0.00 0.00 0.00 0.00 0.00 0.00 0.00 0.00 0.00 0.00 0.00 0.00 0.00 0.00 0.00 0.00 0.00 0.00 0.00 0.00 0.00 0.00 0.00 0.00 0.00 0.00 0.00 0.00 0.00 0.00 0.00 0.00 0.00 0.00
0.00 0.00 0.00 0.00 0.00 0.00 0.00 0.00 0.00 0.00 0.00 0.00 0.00 0.00 0.00 0.00 0.00 0.00 0.00 0.00 0.00 0.00 0.00 0.00 0.00 0.00 0.00 0.00 0.00 0.00 0.00 0.00 0.00 0.00 0.00 0.00 0.00 0.00 0.00 0.00 0.00 0.00 0.00 0.00 0.00 0.00 0.00 0.00 0.00 0.00 0.00 0.00 0.00 0.00 0.00 0.00 0.00 0.00 0.00 0.00 0.00 0.00 0.00 0.00 0.00 0.00 0.00 0.00 0.00
0.00 0.00 0.00 0.00 0.00 0.00 0.00 0.00 0.00 0.00 0.00 0.00 0.00 0.00 0.00 0.00 0.00 0.00 0.00 0.00 0.00 0.00 0.00 0.00 0.00 0.00 0.00 0.00 0.00 0.00 0.00 0.00 0.00 0.00 0.00 0.00 0.00 0.00 0.00 0.00 0.00 0.00 0.00 0.00 0.00 0.00 0.00 0.00 0.00 0.00 0.00 0.00 0.00 0.00 0.00 0.00 0.00 0.00 0.00 0.00 0.00 0.00 0.00 0.00 0.00 0.00 0.00 0.00 0.00
0.00 0.00 0.00 0.00 0.00 0.00 0.00 0.00 0.00 0.00 0.00 0.00 0.00 0.00 0.00 0.00 0.00 0.00 0.00 0.00 0.00 0.00 0.00 0.00 0.00 0.00 0.00 0.00 0.00 0.00 0.00 0.00 0.00 0.00 0.00 0.00 0.00 0.00 0.00 0.00 0.00 0.00 0.00 0.00 0.00 0.00 0.00 0.00 0.00 0.00 0.00 0.00 0.00 0.00 0.00 0.00 0.00 0.00 0.00 0.00 0.00 0.00 0.00 0.00 0.00 0.00 0.00 0.00 0.00
0.00 0.00 0.00 0.00 0.00 0.00 0.00 0.00 0.00 0.00 0.00 0.00 0.00 0.00 0.00 0.00 0.00 0.00 0.00 0.00 0.00 0.00 0.00 0.00 0.00 0.00 0.00 0.00 0.00 0.00 0.00 0.00 0.00 0.00 0.00 0.00 0.00 0.00 0.00 0.00 0.00 0.00 0.00 0.00 0.00 0.00 0.00 0.00 0.00 0.00 0.00 0.00 0.00 0.00 0.00 0.00 0.00 0.00 0.00 0.00 0.00 0.00 0.00 0.00 0.00 0.00 0.00 0.00 0.00
0.00 0.00 0.00 0.00 0.00 0.00 0.00 0.00 0.00 0.00 0.00 0.00 0.00 0.00 0.00 0.00 0.00 0.00 0.00 0.00 0.00 0.00 0.00 0.00 0.00 0.00 0.00 0.00 0.00 0.00 0.00 0.00 0.00 0.00 0.00 0.00 0.00 0.00 0.00 0.00 0.00 0.00 0.00 0.00 0.00 0.00 0.00 0.00 0.00 0.00 0.00 0.00 0.00 0.00 0.00 0.00 0.00 0.00 0.00 0.00 0.00 0.00 0.00 0.00 0.00 0.00 0.00 0.00 0.00
0.00 0.00 0.00 0.00 0.00 0.00 0.00 0.00 0.00 0.00 0.00 0.00 0.00 0.00 0.00 0.00 0.00 0.00 0.00 0.00 0.00 0.00 0.00 0.00 0.00 0.00 0.00 0.00 0.00 0.00 0.00 0.00 0.00 0.00 0.00 0.00 0.00 0.00 0.00 0.00 0.00 0.00 0.00 0.00 0.00 0.00 0.00 0.00 0.00 0.00 0.00 0.00 0.00 0.00 0.00 0.00 0.00 0.00 0.00 0.00 0.00 0.00 0.00 0.00 0.00 0.00 0.00 0.00 0.00
0.00 0.00 0.00 0.00 0.00 0.00 0.00 0.00 0.00 0.00 0.00 0.00 0.00 0.00 0.00 0.00 0.00 0.00 0.00 0.00 0.00 0.00 0.00 0.00 0.00 0.00 0.00 0.00 0.00 0.00 0.00 0.00 0.00 0.00 0.00 0.00 0.00 0.00 0.00 0.00 0.00 0.00 0.00 0.00 0.00 0.00 0.00 0.00 0.00 0.00 0.00 0.00 0.00 0.00 0.00 0.00 0.00 0.00 0.00 0.00 0.00 0.00 0.00 0.00 0.00 0.00 0.00 0.00 0.00
0.00 0.00 0.00 0.00 0.00 0.00 0.00 0.00 0.00 0.00 0.00 0.00 0.00 0.00 0.00 0.00 0.00 0.00 0.00 0.00 0.00 0.00 0.00 0.00 0.00 0.00 0.00 0.00 0.00 0.00 0.00 0.00 0.00 0.00 0.00 0.00 0.00 0.00 0.00 0.00 0.00 0.00 0.00 0.00 0.00 0.00 0.00 0.00 0.00 0.00 0.00 0.00 0.00 0.00 0.00 0.00 0.00 0.00 0.00 0.00 0.00 0.00 0.00 0.00 0.00 0.00 0.00 0.00 0.00
MSLP
1007.89 1008.13 1008.33 1008.53 1008.73 1008.93 1009.21 1009.45 1009.65 1009.81 1009.97 1010.13 1010.33 1010.49 1010.61 1010.77 1010.89 1011.05 1011.21 1011.41 1011.53 1011.69 1011.81 1011.89 1012.01 1012.09 1012.21 1012.33 1012.49 1012.65 1012.81 1012.93 1013.09 1013.29 1013.45 1013.61 1013.77 1013.93 1014.09 1014.29 1014.37 1014.53 1014.69 1014.85 1015.05 1015.21 1015.33 1015.49 1015.65 1015.89 1016.09 1016.21 1016.33 1016.33 1016.41 1016.53 1016.69 1016.81 1016.97 1017.13 1017.33 1017.49 1017.65 1017.81 1017.89 1017.97 1018.09 1018.21 1018.33
1007.73 1007.89 1008.13 1008.33 1008.53 1008.81 1009.09 1009.33 1009.57 1009.73 1009.85 1009.97 1010.13 1010.29 1010.45 1010.61 1010.77 1010.89 1011.05 1011.25 1011.37 1011.49 1011.61 1011.77 1011.85 1011.93 1012.05 1012.25 1012.37 1012.53 1012.73 1012.89 1013.05 1013.21 1013.37 1013.49 1013.65 1013.81 1013.97 1014.13 1014.29 1014.49 1014.69 1014.89 1015.09 1015.29 1015.45 1015.57 1015.77 1016.05 1016.29 1016.41 1016.49 1016.61 1016.69 1016.81 1016.97 1017.09 1017.17 1017.25 1017.41 1017.61 1017.77 1017.89 1018.01 1018.09 1018.17 1018.25 1018.37
1007.49 1007.73 1007.97 1008.17 1008.45 1008.69 1008.97 1009.21 1009.41 1009.57 1009.73 1009.85 1010.01 1010.17 1010.33 1010.49 1010.61 1010.77 1010.93 1011.09 1011.21 1011.33 1011.49 1011.57 1011.65 1011.77 1011.89 1012.13 1012.33 1012.49 1012.61 1012.77 1012.89 1013.09 1013.29 1013.45 1013.57 1013.73 1013.89 1014.13 1014.33 1014.57 1014.77 1015.01 1015.13 1015.33 1015.53 1015.69 1015.89 1016.09 1016.29 1016.49 1016.61 1016.77 1016.89 1017.05 1017.21 1017.29 1017.33 1017.37 1017.53 1017.73 1017.85 1017.93 1018.01 1018.05 1018.13 1018.29 1018.41
1007.33 1007.57 1007.81 1008.05 1008.29 1008.53 1008.77 1009.01 1009.21 1009.41 1009.61 1009.77 1009.89 1010.05 1010.21 1010.37 1010.53 1010.65 1010.81 1010.93 1011.09 1011.21 1011.33 1011.41 1011.49 1011.65 1011.89 1012.13 1012.33 1012.49 1012.61 1012.73 1012.89 1013.09 1013.29 1013.49 1013.61 1013.77 1013.97 1014.17 1014.45 1014.65 1014.85 1015.01 1015.17 1015.33 1015.57 1015.77 1016.01 1016.17 1016.33 1016.49 1016.61 1016.77 1016.89 1016.97 1017.09 1017.21 1017.33 1017.41 1017.53 1017.69 1017.81 1017.85 1017.93 1018.05 1018.13 1018.33 1018.45
1007.17 1007.37 1007.61 1007.89 1008.13 1008.33 1008.61 1008.81 1009.05 1009.29 1009.49 1009.61 1009.81 1009.97 1010.13 1010.29 1010.45 1010.57 1010.69 1010.85 1011.01 1011.09 1011.17 1011.25 1011.37 1011.61 1011.89 1012.13 1012.33 1012.49 1012.65 1012.81 1012.97 1013.17 1013.33 1013.53 1013.69 1013.89 1014.05 1014.33 1014.53 1014.73 1014.85 1015.01 1015.21 1015.37 1015.57 1015.77 1016.01 1016.17 1016.33 1016.49 1016.61 1016.65 1016.69 1016.81 1016.93 1017.09 1017.25 1017.41 1017.57 1017.69 1017.81 1017.93 1018.05 1018.17 1018.25 1018.41 1018.53
1007.01 1007.21 1007.45 1007.73 1007.97 1008.21 1008.49 1008.73 1008.93 1009.13 1009.33 1009.49 1009.69 1009.85 1010.05 1010.17 1010.33 1010.49 1010.61 1010.77 1010.85 1010.93 1011.05 1011.21 1011.37 1011.65 1011.93 1012.17 1012.33 1012.53 1012.73 1012.89 1013.05 1013.21 1013.37 1013.57 1013.77 1013.93 1014.17 1014.33 1014.57 1014.77 1014.89 1015.05 1015.21 1015.37 1015.57 1015.77 1016.05 1016.17 1016.33 1016.49 1016.57 1016.61 1016.73 1016.89 1017.05 1017.21 1017.33 1017.49 1017.61 1017.77 1017.89 1018.05 1018.17 1018.33 1018.45 1018.49 1018.61
1006.85 1007.09 1007.33 1007.61 1007.85 1008.13 1008.37 1008.61 1008.81 1009.05 1009.21 1009.41 1009.61 1009.77 1009.89 1010.09 1010.21 1010.33 1010.49 1010.61 1010.73 1010.89 1011.09 1011.25 1011.45 1011.65 1011.89 1012.17 1012.33 1012.49 1012.73 1012.93 1013.09 1013.25 1013.45 1013.61 1013.81 1013.97 1014.17 1014.37 1014.53 1014.73 1014.89 1015.09 1015.29 1015.49 1015.65 1015.89 1016.05 1016.25 1016.41 1016.53 1016.61 1016.73 1016.85 1017.05 1017.21 1017.33 1017.41 1017.57 1017.73 1017.89 1018.05 1018.13 1018.25 1018.41 1018.49 1018.53 1018.61
1006.69 1006.93 1007.21 1007.49 1007.77 1008.05 1008.29 1008.53 1008.73 1008.93 1009.13 1009.33 1009.49 1009.61 1009.77 1009.97 1010.09 1010.21 1010.33 1010.49 1010.69 1010.89 1011.13 1011.33 1011.45 1011.61 1011.85 1012.05 1012.21 1012.45 1012.65 1012.89 1013.13 1013.33 1013.49 1013.65 1013.81 1013.97 1014.13 1014.33 1014.53 1014.73 1014.89 1015.13 1015.37 1015.57 1015.77 1015.93 1016.13 1016.29 1016.45 1016.61 1016.73 1016.77 1016.89 1017.05 1017.21 1017.33 1017.49 1017.61 1017.77 1017.89 1018.05 1018.13 1018.29 1018.45 1018.49 1018.57 1018.61
1006.65 1006.89 1007.13 1007.41 1007.69 1007.93 1008.17 1008.45 1008.61 1008.85 1009.05 1009.21 1009.33 1009.49 1009.65 1009.85 1010.01 1010.13 1010.29 1010.49 1010.69 1010.89 1011.13 1011.33 1011.49 1011.61 1011.81 1011.97 1012.17 1012.37 1012.61 1012.89 1013.09 1013.33 1013.53 1013.69 1013.85 1014.01 1014.17 1014.33 1014.49 1014.73 1014.97 1015.21 1015.41 1015.57 1015.77 1015.97 1016.17 1016.29 1016.41 1016.57 1016.69 1016.77 1016.89 1017.05 1017.21 1017.33 1017.45 1017.57 1017.69 1017.89 1018.05 1018.17 1018.33 1018.41 1018.49 1018.57 1018.61
1006.61 1006.81 1007.09 1007.41 1007.65 1007.89 1008.13 1008.37 1008.61 1008.77 1008.97 1009.17 1009.29 1009.41 1009.57 1009.73 1009.89 1010.05 1010.17 1010.45 1010.69 1010.89 1011.09 1011.29 1011.49 1011.61 1011.77 1011.97 1012.13 1012.33 1012.53 1012.77 1013.05 1013.25 1013.49 1013.69 1013.89 1014.05 1014.21 1014.37 1014.57 1014.77 1015.01 1015.21 1015.41 1015.57 1015.77 1015.93 1016.09 1016.25 1016.37 1016.53 1016.65 1016.77 1016.89 1017.09 1017.21 1017.33 1017.45 1017.57 1017.69 1017.85 1018.01 1018.17 1018.29 1018.41 1018.49 1018.53 1018.57
1006.49 1006.77 1007.05 1007.33 1007.61 1007.89 1008.09 1008.37 1008.61 1008.77 1008.89 1009.05 1009.21 1009.33 1009.49 1009.65 1009.81 1009.97 1010.17 1010.41 1010.65 1010.89 1011.05 1011.21 1011.37 1011.57 1011.73 1011.89 1012.05 1012.21 1012.45 1012.65 1012.89 1013.13 1013.41 1013.65 1013.89 1014.09 1014.29 1014.49 1014.69 1014.85 1015.05 1015.21 1015.41 1015.57 1015.77 1015.93 1016.09 1016.25 1016.37 1016.57 1016.65 1016.77 1016.89 1017.09 1017.25 1017.33 1017.49 1017.57 1017.69 1017.85 1018.01 1018.17 1018.29 1018.37 1018.49 1018.53 1018.57
1006.49 1006.77 1007.01 1007.29 1007.57 1007.81 1008.09 1008.33 1008.53 1008.69 1008.85 1009.01 1009.17 1009.29 1009.45 1009.61 1009.77 1009.97 1010.21 1010.45 1010.61 1010.77 1010.89 1011.05 1011.21 1011.41 1011.61 1011.81 1012.01 1012.17 1012.37 1012.57 1012.77 1013.05 1013.33 1013.61 1013.89 1014.13 1014.33 1014.49 1014.69 1014.85 1014.97 1015.17 1015.33 1015.57 1015.77 1015.93 1016.05 1016.17 1016.33 1016.49 1016.61 1016.77 1016.93 1017.09 1017.25 1017.33 1017.45 1017.61 1017.69 1017.85 1017.97 1018.05 1018.21 1018.33 1018.41 1018.49 1018.57
1006.49 1006.77 1007.05 1007.29 1007.53 1007.81 1008.05 1008.29 1008.49 1008.61 1008.77 1008.93 1009.09 1009.21 1009.33 1009.57 1009.77 1010.01 1010.25 1010.49 1010.61 1010.73 1010.85 1010.93 1011.13 1011.33 1011.57 1011.81 1012.05 1012.29 1012.49 1012.65 1012.89 1013.09 1013.33 1013.61 1013.85 1014.05 1014.21 1014.41 1014.61 1014.77 1014.93 1015.13 1015.33 1015.57 1015.77 1015.89 1016.05 1016.17 1016.29 1016.49 1016.61 1016.77 1016.93 1017.09 1017.21 1017.33 1017.45 1017.57 1017.69 1017.77 1017.89 1017.97 1018.09 1018.25 1018.37 1018.45 1018.49
1006.49 1006.77 1007.05 1007.29 1007.53 1007.77 1008.05 1008.25 1008.41 1008.61 1008.77 1008.89 1009.01 1009.09 1009.29 1009.61 1009.85 1010.05 1010.25 1010.49 1010.61 1010.69 1010.81 1010.97 1011.17 1011.33 1011.61 1011.89 1012.17 1012.41 1012.61 1012.81 1013.01 1013.21 1013.41 1013.57 1013.77 1013.89 1014.05 1014.29 1014.53 1014.73 1014.89 1015.13 1015.33 1015.53 1015.69 1015.85 1016.01 1016.13 1016.29 1016.45 1016.61 1016.77 1016.93 1017.09 1017.21 1017.33 1017.45 1017.57 1017.65 1017.77 1017.81 1017.89 1018.01 1018.17 1018.29 1018.37 1018.37
1006.53 1006.77 1007.01 1007.25 1007.53 1007.77 1007.97 1008.17 1008.37 1008.53 1008.69 1008.85 1008.89 1009.05 1009.33 1009.61 1009.89 1010.09 1010.25 1010.41 1010.57 1010.69 1010.85 1011.05 1011.29 1011.49 1011.73 1011.97 1012.21 1012.49 1012.73 1012.89 1013.13 1013.29 1013.45 1013.61 1013.77 1013.89 1014.05 1014.25 1014.49 1014.65 1014.89 1015.05 1015.29 1015.49 1015.61 1015.73 1015.89 1016.09 1016.29 1016.45 1016.61 1016.77 1016.93 1017.09 1017.21 1017.33 1017.49 1017.57 1017.61 1017.65 1017.73 1017.81 1017.93 1018.05 1018.21 1018.29 1018.33
1006.53 1006.77 1007.01 1007.25 1007.49 1007.73 1007.89 1008.13 1008.29 1008.45 1008.61 1008.77 1008.89 1009.09 1009.33 1009.61 1009.85 1010.05 1010.25 1010.41 1010.61 1010.77 1010.89 1011.17 1011.41 1011.65 1011.89 1012.09 1012.33 1012.53 1012.77 1012.97 1013.17 1013.33 1013.49 1013.61 1013.81 1014.01 1014.17 1014.29 1014.45 1014.61 1014.85 1015.05 1015.21 1015.41 1015.57 1015.73 1015.89 1016.09 1016.29 1016.49 1016.65 1016.81 1016.89 1017.05 1017.21 1017.33 1017.41 1017.49 1017.57 1017.61 1017.69 1017.77 1017.89 1018.05 1018.17 1018.29 1018.33
1006.49 1006.73 1006.97 1007.21 1007.45 1007.65 1007.85 1008.05 1008.17 1008.33 1008.49 1008.65 1008.89 1009.17 1009.37 1009.57 1009.81 1010.05 1010.29 1010.49 1010.65 1010.81 1011.01 1011.25 1011.49 1011.77 1012.05 1012.25 1012.45 1012.61 1012.81 1013.05 1013.21 1013.33 1013.49 1013.65 1013.89 1014.05 1014.17 1014.33 1014.41 1014.61 1014.85 1015.05 1015.21 1015.33 1015.53 1015.77 1015.93 1016.17 1016.33 1016.49 1016.65 1016.81 1016.89 1017.05 1017.17 1017.29 1017.37 1017.49 1017.53 1017.61 1017.69 1017.77 1017.89 1018.05 1018.17 1018.29 1018.33
1006.49 1006.69 1006.93 1007.17 1007.41 1007.61 1007.77 1007.97 1008.13 1008.29 1008.45 1008.65 1008.93 1009.21 1009.37 1009.53 1009.81 1010.05 1010.33 1010.49 1010.73 1010.89 1011.05 1011.33 1011.57 1011.85 1012.13 1012.37 1012.61 1012.73 1012.85 1013.01 1013.13 1013.25 1013.45 1013.61 1013.85 1014.01 1014.17 1014.33 1014.49 1014.73 1014.89 1015.05 1015.17 1015.33 1015.57 1015.81 1015.97 1016.17 1016.37 1016.49 1016.65 1016.77 1016.89 1017.05 1017.13 1017.25 1017.37 1017.49 1017.53 1017.61 1017.73 1017.81 1017.93 1018.05 1018.17 1018.25 1018.33
1006.45 1006.69 1006.89 1007.13 1007.33 1007.57 1007.77 1007.93 1008.09 1008.25 1008.41 1008.61 1008.89 1009.17 1009.37 1009.61 1009.89 1010.13 1010.37 1010.61 1010.81 1010.97 1011.13 1011.37 1011.61 1011.93 1012.17 1012.45 1012.61 1012.73 1012.81 1012.93 1013.05 1013.21 1013.37 1013.53 1013.77 1013.97 1014.17 1014.37 1014.61 1014.85 1015.01 1015.13 1015.25 1015.45 1015.61 1015.81 1016.01 1016.17 1016.33 1016.49 1016.61 1016.77 1016.89 1017.05 1017.21 1017.33 1017.41 1017.49 1017.61 1017.65 1017.77 1017.89 1018.01 1018.09 1018.17 1018.25 1018.33
1006.41 1006.65 1006.89 1007.09 1007.29 1007.49 1007.69 1007.89 1008.05 1008.17 1008.37 1008.61 1008.89 1009.21 1009.45 1009.69 1009.97 1010.21 1010.49 1010.69 1010.89 1011.05 1011.21 1011.37 1011.65 1011.93 1012.17 1012.37 1012.53 1012.65 1012.77 1012.89 1013.01 1013.21 1013.37 1013.57 1013.77 1014.01 1014.25 1014.49 1014.77 1014.97 1015.13 1015.25 1015.41 1015.57 1015.73 1015.89 1016.01 1016.17 1016.33 1016.49 1016.61 1016.77 1016.93 1017.09 1017.21 1017.33 1017.45 1017.49 1017.61 1017.73 1017.81 1017.89 1018.01 1018.09 1018.17 1018.29 1018.33
1006.41 1006.61 1006.85 1007.05 1007.25 1007.45 1007.65 1007.85 1008.01 1008.17 1008.37 1008.61 1008.93 1009.21 1009.49 1009.77 1010.05 1010.33 1010.57 1010.77 1010.93 1011.09 1011.29 1011.49 1011.69 1011.89 1012.09 1012.29 1012.45 1012.61 1012.77 1012.89 1013.09 1013.29 1013.49 1013.73 1013.89 1014.13 1014.33 1014.57 1014.85 1015.09 1015.29 1015.45 1015.61 1015.77 1015.89 1015.97 1016.05 1016.17 1016.29 1016.49 1016.61 1016.77 1016.89 1017.01 1017.09 1017.25 1017.41 1017.53 1017.61 1017.73 1017.81 1017.89 1017.97 1018.05 1018.17 1018.25 1018.33
1006.37 1006.57 1006.77 1007.05 1007.21 1007.41 1007.61 1007.81 1008.01 1008.17 1008.45 1008.69 1009.01 1009.33 1009.61 1009.89 1010.13 1010.37 1010.61 1010.81 1011.01 1011.21 1011.37 1011.53 1011.69 1011.85 1012.01 1012.21 1012.45 1012.65 1012.89 1013.05 1013.21 1013.45 1013.65 1013.85 1014.05 1014.17 1014.37 1014.61 1014.89 1015.17 1015.37 1015.57 1015.73 1015.85 1015.89 1015.97 1016.05 1016.17 1016.29 1016.41 1016.65 1016.81 1016.89 1016.89 1017.01 1017.17 1017.33 1017.49 1017.57 1017.65 1017.77 1017.85 1017.93 1018.01 1018.13 1018.17 1018.29
1006.37 1006.61 1006.81 1007.05 1007.21 1007.45 1007.61 1007.81 1008.05 1008.25 1008.49 1008.77 1009.09 1009.41 1009.69 1009.93 1010.17 1010.41 1010.65 1010.85 1011.05 1011.25 1011.41 1011.61 1011.69 1011.85 1012.05 1012.29 1012.57 1012.81 1013.05 1013.21 1013.41 1013.61 1013.77 1013.89 1014.05 1014.25 1014.49 1014.73 1015.01 1015.21 1015.45 1015.65 1015.81 1015.89 1016.01 1016.05 1016.17 1016.29 1016.45 1016.57 1016.77 1016.85 1016.85 1016.89 1016.97 1017.13 1017.29 1017.41 1017.53 1017.61 1017.73 1017.81 1017.89 1017.97 1018.05 1018.17 1018.25
1006.41 1006.61 1006.81 1007.05 1007.25 1007.45 1007.61 1007.85 1008.09 1008.33 1008.61 1008.89 1009.21 1009.49 1009.77 1010.01 1010.25 1010.49 1010.73 1010.89 1011.13 1011.33 1011.49 1011.61 1011.81 1012.05 1012.25 1012.49 1012.77 1012.97 1013.17 1013.29 1013.45 1013.61 1013.77 1013.97 1014.17 1014.37 1014.61 1014.81 1015.05 1015.33 1015.53 1015.77 1015.89 1016.01 1016.09 1016.21 1016.33 1016.49 1016.61 1016.73 1016.77 1016.77 1016.89 1016.97 1017.17 1017.25 1017.33 1017.41 1017.53 1017.61 1017.69 1017.77 1017.85 1017.93 1018.01 1018.09 1018.17
1006.45 1006.61 1006.81 1007.05 1007.25 1007.45 1007.65 1007.93 1008.21 1008.49 1008.77 1009.05 1009.33 1009.61 1009.89 1010.17 1010.41 1010.65 1010.85 1011.05 1011.21 1011.41 1011.57 1011.77 1012.05 1012.33 1012.53 1012.77 1012.97 1013.13 1013.25 1013.33 1013.49 1013.65 1013.89 1014.05 1014.29 1014.49 1014.69 1014.89 1015.09 1015.29 1015.53 1015.81 1015.97 1016.05 1016.17 1016.33 1016.45 1016.61 1016.69 1016.69 1016.69 1016.77 1016.89 1017.21 1017.29 1017.29 1017.33 1017.37 1017.49 1017.61 1017.65 1017.73 1017.81 1017.89 1017.97 1018.05 1018.09
1006.45 1006.61 1006.85 1007.05 1007.33 1007.57 1007.81 1008.09 1008.37 1008.61 1008.89 1009.21 1009.49 1009.77 1010.01 1010.29 1010.57 1010.77 1010.93 1011.13 1011.37 1011.57 1011.77 1012.05 1012.29 1012.53 1012.77 1012.89 1013.05 1013.21 1013.33 1013.45 1013.61 1013.77 1013.93 1014.13 1014.37 1014.61 1014.77 1014.89 1015.05 1015.33 1015.61 1015.89 1016.05 1016.09 1016.17 1016.37 1016.49 1016.57 1016.61 1016.65 1016.69 1016.85 1017.05 1017.29 1017.29 1017.29 1017.29 1017.41 1017.49 1017.57 1017.65 1017.73 1017.77 1017.89 1017.93 1018.01 1018.05
1006.49 1006.69 1006.89 1007.17 1007.45 1007.73 1008.01 1008.25 1008.53 1008.81 1009.09 1009.37 1009.65 1009.89 1010.17 1010.41 1010.65 1010.89 1011.05 1011.25 1011.53 1011.77 1012.05 1012.29 1012.49 1012.73 1012.89 1013.01 1013.09 1013.25 1013.41 1013.57 1013.77 1013.93 1014.13 1014.33 1014.53 1014.73 1014.89 1015.09 1015.29 1015.53 1015.77 1015.93 1016.05 1016.13 1016.21 1016.41 1016.49 1016.57 1016.61 1016.73 1016.85 1017.01 1017.21 1017.29 1017.33 1017.37 1017.45 1017.49 1017.61 1017.65 1017.69 1017.73 1017.77 1017.85 1017.93 1018.01 1018.05
1006.61 1006.81 1007.05 1007.37 1007.65 1007.89 1008.13 1008.41 1008.69 1009.01 1009.25 1009.53 1009.77 1010.05 1010.29 1010.53 1010.73 1010.97 1011.21 1011.49 1011.73 1011.97 1012.21 1012.45 1012.61 1012.77 1012.89 1013.05 1013.21 1013.37 1013.57 1013.77 1013.93 1014.13 1014.33 1014.49 1014.73 1014.93 1015.13 1015.33 1015.53 1015.73 1015.89 1015.97 1016.05 1016.17 1016.29 1016.49 1016.61 1016.69 1016.73 1016.77 1016.93 1017.17 1017.33 1017.33 1017.37 1017.49 1017.53 1017.61 1017.69 1017.77 1017.77 1017.81 1017.85 1017.89 1017.93 1018.05 1018.13
1006.77 1007.05 1007.33 1007.57 1007.81 1008.05 1008.33 1008.61 1008.89 1009.17 1009.45 1009.69 1009.93 1010.17 1010.41 1010.65 1010.89 1011.13 1011.37 1011.61 1011.85 1012.05 1012.29 1012.49 1012.65 1012.81 1012.97 1013.13 1013.33 1013.49 1013.69 1013.85 1014.05 1014.25 1014.49 1014.69 1014.89 1015.09 1015.33 1015.57 1015.77 1015.89 1015.97 1016.05 1016.13 1016.25 1016.41 1016.57 1016.73 1016.81 1016.85 1016.89 1016.97 1017.13 1017.29 1017.33 1017.37 1017.41 1017.49 1017.61 1017.69 1017.77 1017.85 1017.89 1017.97 1018.01 1018.05 1018.05 1018.13
1007.05 1007.25 1007.53 1007.77 1008.01 1008.29 1008.57 1008.81 1009.05 1009.33 1009.61 1009.85 1010.13 1010.37 1010.57 1010.81 1011.05 1011.29 1011.49 1011.69 1011.89 1012.17 1012.33 1012.53 1012.73 1012.89 1013.09 1013.25 1013.45 1013.61 1013.77 1013.97 1014.17 1014.41 1014.61 1014.77 1015.01 1015.21 1015.45 1015.65 1015.85 1016.01 1016.09 1016.17 1016.25 1016.37 1016.57 1016.69 1016.81 1016.89 1017.01 1017.05 1017.05 1017.13 1017.25 1017.33 1017.37 1017.45 1017.49 1017.57 1017.69 1017.77 1017.89 1017.97 1018.05 1018.13 1018.13 1018.09 1018.09
1007.25 1007.49 1007.77 1007.97 1008.25 1008.49 1008.77 1009.01 1009.29 1009.53 1009.77 1010.05 1010.33 1010.53 1010.77 1010.97 1011.21 1011.41 1011.61 1011.81 1012.05 1012.29 1012.49 1012.69 1012.85 1013.01 1013.21 1013.37 1013.53 1013.73 1013.89 1014.09 1014.33 1014.53 1014.73 1014.89 1015.13 1015.33 1015.57 1015.77 1015.89 1016.05 1016.17 1016.25 1016.37 1016.49 1016.65 1016.81 1016.93 1017.05 1017.13 1017.13 1017.13 1017.17 1017.21 1017.29 1017.33 1017.45 1017.53 1017.61 1017.73 1017.81 1017.89 1018.05 1018.09 1018.13 1018.09 1018.05 1018.01
1007.45 1007.69 1007.93 1008.17 1008.45 1008.69 1008.97 1009.25 1009.49 1009.73 1009.97 1010.17 1010.45 1010.65 1010.89 1011.13 1011.33 1011.57 1011.77 1012.01 1012.17 1012.41 1012.61 1012.77 1012.89 1013.09 1013.29 1013.49 1013.69 1013.89 1014.13 1014.33 1014.49 1014.69 1014.89 1015.05 1015.21 1015.45 1015.65 1015.81 1015.97 1016.17 1016.29 1016.33 1016.49 1016.61 1016.77 1016.89 1017.05 1017.13 1017.21 1017.21 1017.21 1017.21 1017.21 1017.29 1017.33 1017.45 1017.53 1017.61 1017.77 1017.85 1017.89 1017.97 1018.09 1018.17 1018.13 1018.05 1017.93
1007.61 1007.85 1008.09 1008.37 1008.61 1008.89 1009.17 1009.41 1009.61 1009.89 1010.13 1010.33 1010.57 1010.81 1011.05 1011.33 1011.53 1011.77 1011.93 1012.13 1012.29 1012.49 1012.65 1012.77 1012.93 1013.13 1013.33 1013.57 1013.81 1014.05 1014.29 1014.49 1014.69 1014.89 1015.05 1015.21 1015.33 1015.53 1015.73 1015.89 1016.05 1016.25 1016.37 1016.45 1016.53 1016.65 1016.81 1016.97 1017.09 1017.21 1017.29 1017.33 1017.25 1017.21 1017.25 1017.33 1017.41 1017.49 1017.61 1017.69 1017.81 1017.89 1017.97 1018.01 1018.09 1018.09 1018.09 1018.05 1018.05
1007.69 1007.97 1008.21 1008.49 1008.77 1009.05 1009.29 1009.49 1009.77 1009.97 1010.21 1010.49 1010.73 1010.93 1011.17 1011.37 1011.61 1011.81 1012.01 1012.17 1012.33 1012.49 1012.65 1012.81 1012.97 1013.21 1013.45 1013.69 1013.93 1014.17 1014.41 1014.61 1014.85 1015.01 1015.17 1015.29 1015.41 1015.53 1015.69 1015.89 1016.13 1016.33 1016.49 1016.53 1016.61 1016.77 1016.89 1017.01 1017.13 1017.21 1017.33 1017.37 1017.33 1017.33 1017.33 1017.41 1017.49 1017.61 1017.73 1017.85 1017.89 1017.97 1018.05 1018.09 1018.17 1018.25 1018.25 1018.21 1018.17
1007.77 1008.05 1008.33 1008.61 1008.89 1009.13 1009.37 1009.57 1009.81 1010.05 1010.29 1010.53 1010.77 1011.05 1011.21 1011.41 1011.61 1011.81 1012.01 1012.17 1012.33 1012.49 1012.73 1012.89 1013.09 1013.33 1013.57 1013.85 1014.09 1014.33 1014.53 1014.73 1014.89 1015.09 1015.21 1015.33 1015.45 1015.61 1015.77 1016.05 1016.29 1016.49 1016.61 1016.65 1016.69 1016.81 1016.89 1017.05 1017.17 1017.25 1017.33 1017.37 1017.33 1017.37 1017.45 1017.53 1017.61 1017.69 1017.81 1017.89 1017.97 1018.05 1018.09 1018.21 1018.33 1018.41 1018.41 1018.37 1018.33
1007.81 1008.05 1008.33 1008.65 1008.89 1009.17 1009.37 1009.61 1009.77 1010.05 1010.29 1010.57 1010.81 1011.05 1011.33 1011.49 1011.73 1011.89 1012.05 1012.21 1012.41 1012.61 1012.81 1013.05 1013.25 1013.49 1013.77 1014.01 1014.21 1014.41 1014.61 1014.77 1014.93 1015.13 1015.25 1015.37 1015.53 1015.73 1015.93 1016.17 1016.45 1016.61 1016.73 1016.77 1016.77 1016.89 1016.97 1017.05 1017.21 1017.33 1017.37 1017.37 1017.37 1017.49 1017.57 1017.61 1017.73 1017.77 1017.85 1017.93 1018.05 1018.09 1018.17 1018.33 1018.45 1018.53 1018.61 1018.53 1018.49
1007.89 1008.13 1008.37 1008.65 1008.89 1009.17 1009.37 1009.61 1009.81 1010.05 1010.33 1010.61 1010.89 1011.13 1011.37 1011.61 1011.85 1012.05 1012.17 1012.33 1012.53 1012.77 1012.97 1013.21 1013.45 1013.69 1013.89 1014.13 1014.33 1014.53 1014.73 1014.89 1015.01 1015.17 1015.33 1015.49 1015.61 1015.81 1016.05 1016.33 1016.53 1016.73 1016.85 1016.89 1016.89 1016.93 1017.05 1017.13 1017.21 1017.33 1017.41 1017.41 1017.49 1017.53 1017.61 1017.73 1017.81 1017.85 1017.89 1018.01 1018.09 1018.17 1018.29 1018.37 1018.49 1018.61 1018.69 1018.69 1018.69
1007.97 1008.17 1008.41 1008.65 1008.89 1009.21 1009.41 1009.65 1009.89 1010.17 1010.45 1010.73 1011.01 1011.25 1011.49 1011.69 1011.93 1012.13 1012.33 1012.45 1012.61 1012.89 1013.13 1013.41 1013.65 1013.89 1014.13 1014.33 1014.49 1014.69 1014.85 1015.01 1015.09 1015.21 1015.37 1015.53 1015.73 1015.93 1016.13 1016.37 1016.61 1016.81 1016.93 1017.01 1017.01 1017.05 1017.09 1017.21 1017.33 1017.37 1017.45 1017.45 1017.49 1017.57 1017.65 1017.77 1017.85 1017.89 1017.93 1018.05 1018.17 1018.25 1018.33 1018.45 1018.57 1018.65 1018.77 1018.85 1018.89
1008.05 1008.25 1008.49 1008.69 1008.97 1009.21 1009.45 1009.73 1009.97 1010.25 1010.53 1010.81 1011.09 1011.33 1011.57 1011.77 1012.01 1012.21 1012.41 1012.57 1012.77 1013.01 1013.29 1013.57 1013.89 1014.13 1014.33 1014.49 1014.65 1014.85 1015.05 1015.17 1015.25 1015.37 1015.49 1015.65 1015.85 1016.05 1016.21 1016.45 1016.69 1016.89 1017.05 1017.09 1017.13 1017.17 1017.25 1017.33 1017.45 1017.49 1017.49 1017.49 1017.53 1017.61 1017.73 1017.77 1017.85 1017.89 1017.97 1018.05 1018.17 1018.29 1018.33 1018.49 1018.57 1018.65 1018.81 1018.97 1019.05
1008.09 1008.33 1008.53 1008.77 1008.97 1009.21 1009.49 1009.81 1010.09 1010.41 1010.65 1010.89 1011.17 1011.41 1011.65 1011.89 1012.05 1012.29 1012.53 1012.77 1012.97 1013.25 1013.49 1013.77 1014.05 1014.29 1014.49 1014.65 1014.81 1015.01 1015.21 1015.37 1015.53 1015.61 1015.77 1015.89 1016.05 1016.17 1016.33 1016.53 1016.77 1016.93 1017.09 1017.21 1017.21 1017.29 1017.33 1017.45 1017.49 1017.57 1017.57 1017.57 1017.61 1017.65 1017.77 1017.81 1017.85 1017.89 1018.01 1018.09 1018.17 1018.33 1018.41 1018.49 1018.57 1018.69 1018.85 1018.97 1019.09
1008.17 1008.37 1008.61 1008.81 1009.05 1009.33 1009.61 1009.93 1010.25 1010.57 1010.81 1011.05 1011.29 1011.49 1011.77 1012.01 1012.17 1012.37 1012.65 1012.89 1013.21 1013.45 1013.69 1013.97 1014.25 1014.45 1014.61 1014.81 1014.97 1015.21 1015.37 1015.61 1015.77 1015.89 1016.05 1016.13 1016.21 1016.33 1016.49 1016.61 1016.77 1016.97 1017.09 1017.21 1017.33 1017.41 1017.49 1017.53 1017.61 1017.61 1017.65 1017.65 1017.65 1017.69 1017.73 1017.81 1017.85 1017.89 1018.01 1018.13 1018.21 1018.33 1018.49 1018.53 1018.61 1018.77 1018.89 1019.01 1019.13
Thickness
5702 5700 5698 5696 5694 5692 5690 5687 5685 5683 5681 5680 5679 5678 5677 5676 5675 5674 5672 5670 5668 5667 5665 5664 5663 5661 5659 5657 5655 5653 5651 5648 5646 5644 5642 5640 5637 5635 5632 5630 5628 5626 5624 5622 5620 5617 5616 5614 5611 5608 5605 5603 5602 5600 5598 5596 5595 5592 5590 5588 5586 5583 5581 5578 5576 5575 5572 5570 5568
5701 5699 5696 5694 5692 5690 5688 5686 5684 5682 5680 5679 5678 5677 5676 5675 5673 5672 5671 5668 5667 5665 5664 5663 5661 5660 5659 5656 5654 5652 5649 5647 5645 5642 5640 5638 5635 5634 5631 5629 5627 5625 5622 5620 5617 5615 5613 5611 5608 5606 5603 5600 5598 5597 5594 5592 5590 5588 5587 5585 5583 5580 5578 5575 5573 5571 5570 5567 5565
5699 5697 5695 5693 5691 5689 5687 5684 5683 5681 5680 5678 5677 5676 5674 5673 5672 5671 5669 5667 5665 5664 5663 5662 5661 5659 5657 5655 5652 5650 5648 5646 5643 5641 5638 5636 5634 5632 5630 5627 5624 5622 5619 5617 5615 5613 5610 5608 5605 5603 5601 5598 5596 5593 5592 5590 5588 5585 5584 5583 5580 5578 5576 5574 5572 5570 5567 5564 5562
5699 5696 5694 5692 5690 5689 5686 5684 5682 5680 5679 5677 5676 5675 5673 5672 5670 5669 5667 5665 5664 5663 5662 5661 5660 5658 5655 5652 5650 5648 5645 5643 5641 5639 5637 5634 5632 5629 5627 5625 5622 5619 5617 5615 5613 5611 5608 5606 5603 5601 5599 5596 5594 5593 5591 5589 5586 5583 5581 5580 5578 5576 5573 5571 5570 5567 5565 5562 5560
5697 5695 5693 5691 5689 5687 5685 5683 5681 5679 5677 5676 5675 5673 5671 5670 5669 5667 5666 5664 5663 5662 5661 5660 5658 5656 5653 5650 5647 5645 5643 5641 5638 5636 5634 5631 5629 5627 5625 5622 5620 5617 5615 5613 5611 5609 5606 5604 5601 5599 5597 5596 5594 5592 5590 5587 5584 5581 5580 5577 5575 5573 5571 5569 5567 5564 5562 5560 5558
5696 5694 5692 5690 5688 5686 5684 5682 5680 5678 5676 5675 5674 5672 5670 5669 5667 5666 5665 5663 5662 5661 5659 5658 5656 5653 5650 5647 5645 5643 5641 5638 5636 5634 5632 5630 5627 5624 5622 5620 5618 5615 5614 5611 5609 5606 5604 5602 5599 5597 5594 5592 5591 5589 5587 5585 5582 5580 5577 5575 5572 5570 5568 5566 5563 5561 5559 5557 5555
5695 5693 5691 5689 5687 5684 5682 5680 5679 5677 5675 5674 5672 5671 5670 5668 5666 5664 5664 5662 5661 5659 5657 5655 5653 5651 5647 5646 5643 5641 5638 5636 5633 5631 5629 5627 5625 5623 5621 5618 5616 5613 5611 5609 5607 5604 5602 5599 5597 5594 5592 5589 5588 5586 5584 5582 5580 5577 5575 5572 5570 5567 5565 5563 5560 5558 5556 5554 5552
5694 5692 5690 5688 5685 5683 5681 5679 5677 5675 5674 5673 5671 5670 5668 5666 5665 5663 5662 5661 5659 5656 5654 5652 5650 5648 5646 5644 5642 5640 5637 5634 5631 5629 5627 5625 5623 5622 5619 5617 5615 5612 5609 5607 5604 5602 5599 5597 5594 5592 5590 5587 5585 5583 5582 5580 5577 5575 5572 5570 5568 5565 5563 5560 5558 5556 5554 5552 5550
5692 5690 5688 5686 5684 5681 5679 5677 5676 5675 5673 5671 5670 5668 5667 5665 5664 5662 5661 5659 5656 5654 5652 5649 5648 5646 5644 5642 5641 5638 5635 5633 5630 5627 5625 5624 5621 5619 5617 5615 5613 5610 5608 5605 5602 5600 5597 5595 5592 5590 5588 5586 5584 5582 5579 5577 5575 5573 5570 5568 5566 5564 5561 5558 5556 5553 5551 5549 5547
5691 5689 5686 5684 5681 5679 5677 5675 5674 5672 5671 5670 5668 5667 5666 5663 5662 5660 5659 5657 5654 5652 5650 5648 5645 5644 5642 5640 5639 5636 5634 5631 5629 5626 5624 5622 5619 5617 5615 5613 5611 5608 5605 5602 5600 5598 5596 5593 5591 5588 5586 5584 5582 5580 5578 5575 5573 5571 5569 5566 5564 5561 5559 5556 5553 5551 5549 5547 5545
5689 5687 5684 5682 5680 5677 5676 5674 5672 5670 5669 5668 5666 5665 5664 5662 5660 5659 5657 5655 5652 5650 5649 5646 5644 5642 5641 5639 5637 5635 5633 5630 5628 5625 5623 5620 5617 5615 5613 5611 5608 5606 5604 5601 5599 5596 5593 5591 5589 5587 5584 5582 5580 5578 5576 5573 5571 5569 5567 5564 5562 5560 5557 5554 5551 5549 5547 5545 5543
5687 5685 5683 5680 5678 5676 5673 5671 5670 5668 5668 5666 5665 5664 5662 5661 5659 5656 5654 5652 5650 5649 5647 5646 5644 5642 5640 5638 5635 5634 5631 5629 5627 5624 5622 5618 5616 5613 5611 5609 5607 5604 5602 5600 5597 5594 5592 5589 5587 5585 5583 5580 5578 5576 5574 5571 5569 5567 5564 5563 5560 5558 5555 5552 5550 5547 5545 5543 5541
5684 5682 5680 5678 5676 5673 5671 5670 5669 5667 5666 5665 5664 5662 5661 5659 5656 5654 5652 5650 5648 5647 5646 5644 5643 5640 5638 5635 5633 5631 5629 5626 5625 5622 5620 5616 5614 5612 5610 5608 5605 5603 5601 5599 5596 5593 5590 5587 5585 5583 5581 5579 5576 5574 5572 5569 5567 5565 5563 5560 5558 5556 5554 5551 5549 5546 5543 5541 5539
5681 5680 5678 5676 5673 5672 5670 5668 5666 5665 5664 5663 5662 5661 5659 5656 5654 5651 5650 5648 5646 5645 5644 5642 5640 5638 5636 5633 5630 5628 5626 5624 5621 5619 5617 5615 5613 5611 5609 5607 5604 5602 5600 5597 5595 5592 5589 5587 5584 5582 5580 5578 5575 5572 5570 5567 5565 5563 5561 5558 5556 5554 5552 5550 5547 5544 5542 5539 5538
5679 5678 5676 5674 5672 5670 5668 5667 5665 5664 5662 5661 5660 5659 5656 5653 5651 5649 5648 5646 5645 5643 5641 5639 5637 5635 5632 5630 5628 5626 5624 5621 5619 5617 5616 5614 5611 5609 5607 5605 5602 5600 5598 5595 5592 5590 5588 5586 5584 5581 5578 5576 5573 5571 5568 5566 5563 5561 5559 5556 5554 5552 5550 5548 5546 5543 5540 5538 5535
5677 5676 5674 5672 5669 5668 5666 5665 5664 5662 5661 5660 5658 5656 5654 5652 5650 5647 5646 5644 5642 5640 5639 5637 5635 5632 5630 5628 5625 5623 5621 5619 5617 5616 5614 5611 5609 5607 5605 5603 5601 5599 5596 5594 5592 5589 5587 5585 5582 5580 5577 5574 5571 5569 5566 5564 5562 5559 5556 5554 5552 5551 5549 5546 5543 5540 5538 5535 5533
5676 5673 5672 5670 5668 5666 5665 5663 5662 5660 5660 5658 5656 5653 5652 5650 5648 5645 5643 5642 5640 5638 5637 5635 5632 5629 5627 5624 5623 5621 5619 5617 5615 5614 5612 5610 5607 5605 5603 5601 5600 5597 5595 5592 5590 5588 5585 5582 5580 5577 5574 5572 5569 5567 5565 5562 5560 5557 5555 5553 5551 5549 5546 5544 5541 5539 5536 5533 5531
5673 5671 5669 5668 5666 5665 5663 5661 5660 5659 5658 5656 5654 5651 5650 5648 5646 5644 5641 5639 5637 5636 5634 5632 5630 5627 5624 5622 5620 5619 5617 5615 5614 5612 5610 5608 5606 5604 5602 5599 5597 5594 5592 5590 5588 5586 5583 5580 5578 5575 5573 5570 5568 5565 5563 5561 5558 5555 5553 5551 5549 5546 5544 5541 5539 5536 5534 5531 5529
5672 5670 5668 5666 5665 5662 5661 5660 5659 5657 5656 5654 5652 5649 5648 5646 5644 5641 5639 5636 5635 5634 5632 5630 5628 5625 5622 5620 5618 5617 5615 5615 5613 5611 5609 5606 5604 5602 5600 5597 5594 5592 5589 5587 5586 5583 5581 5579 5576 5573 5571 5568 5566 5563 5561 5558 5556 5553 5550 5548 5546 5543 5541 5539 5536 5534 5531 5529 5527
5669 5667 5666 5664 5662 5661 5660 5658 5657 5656 5654 5652 5650 5647 5645 5643 5641 5638 5636 5634 5633 5632 5630 5628 5626 5623 5621 5618 5617 5616 5614 5613 5611 5609 5607 5605 5602 5600 5597 5594 5592 5589 5586 5585 5582 5581 5578 5576 5574 5572 5569 5566 5564 5561 5558 5556 5554 5551 5548 5546 5544 5541 5539 5536 5534 5531 5529 5526 5524
5667 5665 5664 5662 5660 5659 5657 5656 5654 5654 5652 5650 5647 5645 5643 5640 5638 5635 5634 5632 5630 5629 5628 5626 5624 5622 5619 5618 5616 5614 5612 5610 5609 5606 5604 5602 5599 5597 5595 5592 5589 5587 5584 5582 5580 5578 5575 5574 5572 5570 5568 5564 5562 5559 5557 5555 5552 5549 5546 5544 5541 5539 5537 5535 5532 5529 5527 5525 5522
5665 5663 5661 5660 5658 5657 5656 5654 5653 5651 5650 5648 5646 5643 5641 5638 5636 5633 5631 5630 5628 5627 5625 5623 5622 5620 5619 5617 5615 5612 5610 5607 5606 5603 5601 5600 5597 5595 5593 5590 5587 5584 5581 5579 5577 5575 5574 5571 5570 5568 5566 5563 5560 5557 5555 5554 5551 5548 5545 5542 5540 5537 5535 5532 5530 5528 5525 5523 5520
5662 5660 5659 5657 5656 5655 5654 5652 5651 5650 5647 5645 5642 5640 5638 5636 5634 5632 5630 5628 5626 5625 5623 5621 5620 5619 5617 5614 5612 5609 5607 5605 5603 5601 5599 5597 5595 5593 5590 5588 5585 5582 5579 5576 5574 5573 5571 5570 5567 5565 5563 5561 5557 5555 5553 5551 5549 5546 5543 5540 5538 5535 5533 5531 5528 5526 5523 5521 5518
5660 5659 5657 5656 5654 5653 5652 5651 5648 5647 5644 5642 5640 5638 5635 5633 5631 5629 5627 5625 5624 5622 5621 5619 5617 5615 5613 5611 5608 5606 5604 5602 5601 5599 5597 5595 5593 5590 5587 5585 5582 5580 5577 5574 5572 5570 5568 5566 5564 5562 5559 5557 5555 5553 5551 5548 5545 5543 5541 5538 5536 5534 5531 5528 5527 5524 5521 5519 5517
5658 5656 5655 5654 5652 5651 5650 5648 5646 5643 5642 5639 5636 5635 5632 5631 5628 5626 5625 5623 5621 5620 5618 5616 5614 5611 5609 5607 5605 5604 5602 5601 5599 5597 5595 5593 5590 5588 5586 5583 5580 5578 5575 5572 5570 5568 5566 5564 5561 5559 5556 5555 5554 5551 5549 5545 5543 5541 5539 5537 5534 5532 5529 5527 5524 5522 5520 5517 5516
5656 5654 5653 5652 5650 5649 5647 5645 5643 5641 5638 5636 5634 5632 5630 5627 5626 5624 5622 5621 5619 5617 5615 5613 5610 5608 5606 5604 5603 5602 5600 5599 5597 5594 5592 5590 5588 5585 5583 5581 5579 5577 5573 5570 5568 5566 5564 5561 5559 5557 5555 5553 5551 5549 5545 5542 5540 5539 5537 5535 5532 5530 5528 5525 5523 5520 5518 5516 5513
5653 5652 5651 5649 5647 5645 5643 5641 5640 5637 5635 5633 5631 5629 5627 5625 5623 5621 5620 5618 5616 5613 5611 5609 5607 5605 5603 5602 5601 5600 5597 5596 5594 5591 5589 5588 5585 5583 5580 5578 5576 5573 5570 5567 5566 5564 5561 5559 5557 5555 5553 5551 5548 5545 5542 5540 5538 5536 5534 5531 5529 5527 5525 5523 5521 5518 5516 5513 5511
5650 5649 5648 5646 5644 5642 5641 5638 5637 5634 5632 5630 5628 5626 5624 5622 5621 5619 5616 5615 5613 5611 5608 5606 5605 5603 5601 5600 5599 5597 5595 5593 5591 5588 5586 5584 5582 5580 5577 5575 5572 5569 5567 5566 5563 5561 5559 5556 5554 5551 5550 5548 5545 5542 5540 5538 5536 5533 5531 5529 5526 5524 5522 5520 5518 5516 5513 5511 5508
5647 5646 5644 5642 5641 5639 5637 5635 5633 5631 5629 5627 5625 5623 5621 5620 5618 5616 5614 5612 5610 5608 5607 5604 5603 5601 5600 5598 5596 5594 5592 5590 5588 5586 5583 5581 5579 5576 5574 5571 5568 5566 5565 5562 5561 5558 5556 5554 5551 5548 5547 5545 5543 5540 5537 5535 5533 5531 5529 5526 5524 5522 5519 5517 5515 5513 5510 5508 5506
5643 5642 5640 5639 5637 5635 5633 5631 5630 5628 5626 5624 5622 5620 5618 5616 5615 5614 5612 5610 5608 5606 5605 5603 5600 5599 5598 5596 5594 5592 5590 5588 5586 5583 5581 5578 5576 5573 5571 5568 5565 5563 5562 5560 5558 5555 5553 5550 5548 5546 5544 5541 5540 5538 5535 5533 5531 5529 5526 5524 5522 5519 5517 5514 5511 5509 5507 5506 5504
5640 5638 5636 5635 5633 5631 5629 5628 5626 5624 5622 5620 5619 5617 5616 5613 5612 5610 5609 5607 5605 5603 5601 5600 5599 5597 5595 5593 5591 5590 5588 5585 5583 5580 5578 5576 5573 5571 5568 5565 5564 5561 5559 5557 5555 5552 5550 5547 5545 5542 5540 5539 5537 5536 5534 5531 5529 5527 5524 5522 5519 5517 5514 5511 5509 5506 5505 5503 5502
5636 5634 5633 5631 5629 5628 5626 5624 5622 5620 5619 5617 5616 5615 5613 5611 5609 5608 5606 5604 5603 5601 5599 5598 5597 5595 5593 5591 5589 5586 5584 5582 5580 5577 5575 5573 5570 5568 5566 5563 5561 5558 5556 5554 5552 5550 5547 5544 5542 5540 5538 5535 5534 5533 5531 5529 5527 5525 5522 5519 5516 5514 5511 5509 5506 5503 5502 5501 5499
5632 5631 5630 5628 5626 5624 5622 5621 5619 5618 5616 5614 5614 5612 5610 5608 5606 5605 5603 5601 5600 5599 5597 5596 5595 5593 5591 5588 5586 5583 5581 5579 5577 5575 5572 5570 5568 5566 5564 5560 5558 5556 5553 5551 5549 5547 5544 5542 5539 5537 5535 5533 5532 5530 5528 5527 5524 5522 5519 5516 5513 5511 5509 5506 5504 5501 5500 5498 5496
5630 5628 5627 5625 5623 5621 5620 5618 5617 5616 5614 5613 5611 5609 5608 5606 5604 5603 5602 5600 5599 5597 5596 5594 5593 5591 5589 5586 5584 5581 5578 5576 5574 5571 5570 5568 5566 5564 5562 5559 5556 5553 5550 5548 5547 5544 5542 5539 5537 5534 5532 5530 5529 5527 5526 5523 5521 5518 5516 5513 5510 5508 5506 5503 5500 5498 5496 5494 5492
5628 5626 5624 5622 5620 5619 5617 5616 5615 5614 5612 5610 5609 5607 5605 5604 5603 5601 5601 5599 5598 5596 5594 5592 5590 5588 5586 5583 5580 5578 5576 5574 5571 5569 5567 5566 5564 5561 5559 5556 5552 5549 5548 5546 5544 5542 5540 5537 5534 5532 5530 5528 5527 5525 5523 5520 5518 5515 5513 5510 5508 5505 5503 5500 5497 5494 5492 5490 5488
5626 5624 5621 5620 5618 5617 5616 5614 5613 5612 5610 5608 5607 5605 5604 5602 5601 5599 5598 5597 5595 5594 5592 5590 5588 5585 5583 5580 5578 5576 5573 5572 5569 5567 5565 5563 5561 5559 5555 5552 5549 5547 5544 5543 5541 5539 5537 5535 5532 5530 5528 5526 5524 5522 5519 5517 5515 5512 5510 5508 5505 5502 5500 5496 5493 5490 5488 5486 5485
5623 5621 5620 5618 5616 5615 5614 5613 5612 5610 5608 5606 5605 5603 5601 5600 5598 5597 5595 5594 5593 5591 5589 5587 5584 5582 5580 5578 5575 5573 5571 5569 5567 5565 5563 5561 5558 5555 5553 5549 5546 5544 5541 5540 5538 5536 5535 5532 5529 5527 5525 5523 5521 5519 5516 5514 5512 5510 5507 5505 5502 5499 5496 5494 5491 5488 5485 5483 5481
5620 5619 5618 5617 5615 5613 5612 5611 5610 5608 5606 5604 5602 5601 5599 5598 5596 5595 5593 5592 5591 5589 5586 5584 5581 5579 5577 5574 5572 5570 5568 5566 5565 5563 5560 5558 5556 5553 5550 5547 5544 5541 5539 5537 5535 5533 5531 5529 5527 5524 5522 5521 5519 5516 5514 5511 5510 5508 5505 5502 5500 5496 5494 5491 5488 5485 5481 5479 5476
5618 5617 5616 5615 5613 5612 5611 5609 5607 5605 5604 5602 5600 5598 5596 5595 5594 5592 5591 5590 5588 5586 5583 5580 5578 5575 5573 5571 5569 5566 5565 5563 5561 5559 5557 5555 5552 5550 5547 5544 5541 5538 5536 5534 5532 5530 5528 5526 5524 5522 5520 5519 5516 5514 5512 5509 5507 5504 5502 5500 5497 5494 5491 5488 5486 5482 5479 5475 5473
5616 5615 5614 5612 5612 5610 5609 5606 5605 5603 5601 5600 5598 5596 5594 5593 5591 5590 5588 5586 5584 5582 5580 5577 5574 5572 5570 5568 5566 5564 5561 5559 5557 5555 5554 5551 5549 5547 5544 5542 5538 5535 5533 5531 5529 5527 5525 5523 5521 5519 5517 5515 5514 5511 5509 5507 5505 5502 5500 5498 5494 5492 5489 5486 5483 5480 5476 5472 5469
5613 5613 5612 5611 5609 5608 5606 5604 5602 5600 5599 5597 5596 5594 5592 5591 5589 5587 5586 5583 5581 5578 5576 5574 5571 5569 5567 5565 5562 5561 5558 5556 5553 5551 5549 5547 5545 5543 5541 5539 5536 5533 5530 5528 5526 5524 5522 5520 5518 5516 5514 5513 5511 5509 5507 5505 5503 5500 5498 5495 5492 5489 5486 5483 5480 5477 5473 5470 5466